TimeCST,TemperatureF,Dew PointF,Humidity,Sea Level PressureIn,VisibilityMPH,Wind Direction,Wind SpeedMPH,Gust SpeedMPH,PrecipitationIn,Events,Conditions,WindDirDegrees,DateUTC
12:15 AM,44.6,39.2,81,29.93,10.0,WSW,9.2,-,N/A,,Overcast,240,2013-02-05 06:15:00
12:55 AM,44.6,39.2,81,29.93,10.0,WSW,8.1,-,N/A,,Overcast,240,2013-02-05 06:55:00
1:15 AM,44.6,39.2,81,29.93,10.0,West,8.1,-,N/A,,Overcast,260,2013-02-05 07:15:00
1:35 AM,44.6,39.2,81,29.93,10.0,WSW,8.1,-,N/A,,Overcast,250,2013-02-05 07:35:00
1:55 AM,44.6,39.2,81,29.93,10.0,West,4.6,-,N/A,,Overcast,280,2013-02-05 07:55:00
2:15 AM,42.8,39.2,87,29.93,10.0,West,5.8,-,N/A,,Overcast,280,2013-02-05 08:15:00
2:35 AM,42.8,39.2,87,29.93,10.0,West,5.8,-,N/A,,Overcast,280,2013-02-05 08:35:00
2:55 AM,42.8,39.2,87,29.94,10.0,WNW,5.8,-,N/A,,Overcast,290,2013-02-05 08:55:00
3:15 AM,41.0,39.2,93,29.94,10.0,WNW,5.8,-,N/A,,Overcast,300,2013-02-05 09:15:00
3:55 AM,41.0,39.2,93,29.94,10.0,NW,5.8,-,N/A,,Overcast,320,2013-02-05 09:55:00
4:15 AM,41.0,39.2,93,29.94,7.0,NW,3.5,-,N/A,,Overcast,310,2013-02-05 10:15:00
4:35 AM,41.0,39.2,93,29.94,7.0,Calm,Calm,-,N/A,,Overcast,0,2013-02-05 10:35:00
4:55 AM,41.0,39.2,93,29.94,6.0,North,3.5,-,N/A,,Overcast,350,2013-02-05 10:55:00
5:15 AM,39.2,39.2,100,29.94,6.0,Calm,Calm,-,N/A,,Overcast,0,2013-02-05 11:15:00
6:15 AM,39.2,39.2,100,29.96,5.0,Calm,Calm,-,N/A,,Overcast,0,2013-02-05 12:15:00
6:35 AM,39.2,39.2,100,29.96,5.0,Calm,Calm,-,N/A,,Overcast,0,2013-02-05 12:35:00
6:55 AM,39.2,39.2,100,29.97,5.0,Calm,Calm,-,N/A,,Overcast,0,2013-02-05 12:55:00
7:15 AM,39.2,39.2,100,29.98,4.0,Calm,Calm,-,N/A,,Overcast,0,2013-02-05 13:15:00
7:35 AM,39.2,39.2,100,30.00,4.0,Calm,Calm,-,N/A,,Overcast,0,2013-02-05 13:35:00
7:55 AM,41.0,39.2,93,30.00,5.0,NW,5.8,-,N/A,,Overcast,320,2013-02-05 13:55:00
8:15 AM,39.2,39.2,100,30.01,4.0,WNW,3.5,-,N/A,,Overcast,300,2013-02-05 14:15:00
8:35 AM,41.0,39.2,93,30.01,3.0,WNW,3.5,-,N/A,,Overcast,290,2013-02-05 14:35:00
8:55 AM,41.0,39.2,93,30.01,3.0,WSW,3.5,-,N/A,,Overcast,250,2013-02-05 14:55:00
9:15 AM,41.0,39.2,93,30.02,3.0,WSW,5.8,-,N/A,,Overcast,250,2013-02-05 15:15:00
9:35 AM,41.0,39.2,93,30.02,3.0,WSW,4.6,-,N/A,,Overcast,240,2013-02-05 15:35:00
9:55 AM,41.0,39.2,93,30.03,4.0,West,5.8,-,N/A,,Overcast,270,2013-02-05 15:55:00
10:15 AM,41.0,39.2,93,30.04,4.0,WNW,6.9,-,N/A,,Overcast,290,2013-02-05 16:15:00
10:35 AM,41.0,39.2,93,30.03,5.0,WNW,3.5,-,N/A,,Overcast,290,2013-02-05 16:35:00
10:55 AM,44.6,39.2,81,30.03,6.0,SW,4.6,-,N/A,,Overcast,230,2013-02-05 16:55:00
11:15 AM,44.6,39.2,81,30.03,8.0,WSW,6.9,-,N/A,,Overcast,240,2013-02-05 17:15:00
11:35 AM,44.6,39.2,81,30.01,10.0,SW,3.5,-,N/A,,Mostly Cloudy,220,2013-02-05 17:35:00
11:55 AM,46.4,41.0,81,30.00,10.0,West,4.6,-,N/A,,Mostly Cloudy,260,2013-02-05 17:55:00
12:15 PM,48.2,41.0,76,29.99,10.0,WSW,5.8,-,N/A,,Partly Cloudy,250,2013-02-05 18:15:00
12:35 PM,50.0,41.0,71,29.98,10.0,SW,5.8,-,N/A,,Clear,230,2013-02-05 18:35:00
12:55 PM,50.0,41.0,71,29.97,10.0,SSW,8.1,-,N/A,,Clear,210,2013-02-05 18:55:00
1:15 PM,53.6,39.2,58,29.97,10.0,WSW,6.9,-,N/A,,Clear,250,2013-02-05 19:15:00
1:35 PM,53.6,39.2,58,29.96,10.0,WSW,6.9,-,N/A,,Clear,240,2013-02-05 19:35:00
1:55 PM,53.6,39.2,58,29.96,10.0,SW,9.2,-,N/A,,Clear,220,2013-02-05 19:55:00
2:15 PM,55.4,37.4,51,29.96,10.0,SW,9.2,-,N/A,,Clear,230,2013-02-05 20:15:00
2:35 PM,55.4,37.4,51,29.96,10.0,WSW,13.8,-,N/A,,Clear,240,2013-02-05 20:35:00
2:55 PM,55.4,37.4,51,29.96,10.0,WSW,8.1,-,N/A,,Clear,250,2013-02-05 20:55:00
3:15 PM,55.4,35.6,47,29.96,10.0,WSW,11.5,17.3,N/A,,Clear,240,2013-02-05 21:15:00
3:35 PM,55.4,35.6,47,29.96,10.0,WSW,11.5,-,N/A,,Clear,240,2013-02-05 21:35:00
3:55 PM,55.4,32.0,41,29.96,10.0,WSW,13.8,-,N/A,,Clear,250,2013-02-05 21:55:00
4:15 PM,53.6,35.6,51,29.97,10.0,West,9.2,-,N/A,,Clear,260,2013-02-05 22:15:00
4:35 PM,53.6,37.4,54,29.97,10.0,West,8.1,-,N/A,,Clear,260,2013-02-05 22:35:00
4:55 PM,51.8,37.4,58,29.98,10.0,West,8.1,-,N/A,,Clear,280,2013-02-05 22:55:00
5:15 PM,50.0,37.4,62,29.98,10.0,WSW,6.9,-,N/A,,Clear,250,2013-02-05 23:15:00
5:35 PM,48.2,37.4,66,29.98,10.0,WSW,5.8,-,N/A,,Clear,240,2013-02-05 23:35:00
5:55 PM,48.2,37.4,66,29.99,10.0,SW,3.5,-,N/A,,Clear,230,2013-02-05 23:55:00
6:15 PM,46.4,37.4,71,29.99,10.0,SW,5.8,-,N/A,,Clear,220,2013-02-06 00:15:00
6:35 PM,46.4,37.4,71,30.00,10.0,SW,5.8,-,N/A,,Clear,230,2013-02-06 00:35:00
6:55 PM,44.6,37.4,76,30.00,10.0,SW,6.9,-,N/A,,Clear,230,2013-02-06 00:55:00
7:15 PM,46.4,37.4,71,30.01,10.0,WSW,6.9,-,N/A,,Clear,240,2013-02-06 01:15:00
7:35 PM,44.6,37.4,76,30.02,10.0,SW,5.8,-,N/A,,Clear,230,2013-02-06 01:35:00
7:55 PM,44.6,37.4,76,30.02,10.0,WSW,5.8,-,N/A,,Clear,250,2013-02-06 01:55:00
8:15 PM,44.6,37.4,76,30.03,10.0,WSW,5.8,-,N/A,,Clear,250,2013-02-06 02:15:00
8:35 PM,42.8,37.4,81,30.03,10.0,WSW,5.8,-,N/A,,Clear,250,2013-02-06 02:35:00
8:55 PM,42.8,37.4,81,30.04,10.0,WSW,5.8,-,N/A,,Clear,250,2013-02-06 02:55:00
9:15 PM,42.8,37.4,81,30.05,10.0,WSW,5.8,-,N/A,,Clear,250,2013-02-06 03:15:00
9:35 PM,41.0,37.4,87,30.05,10.0,West,6.9,-,N/A,,Clear,260,2013-02-06 03:35:00
9:55 PM,41.0,37.4,87,30.06,10.0,West,5.8,-,N/A,,Clear,280,2013-02-06 03:55:00
10:15 PM,37.4,33.8,87,30.06,10.0,NW,5.8,-,N/A,,Clear,310,2013-02-06 04:15:00
10:35 PM,39.2,37.4,93,30.06,10.0,NW,5.8,-,N/A,,Clear,320,2013-02-06 04:35:00
10:55 PM,37.4,35.6,93,30.07,10.0,NNW,6.9,-,N/A,,Clear,330,2013-02-06 04:55:00
11:15 PM,33.8,32.0,93,30.08,10.0,Calm,Calm,-,N/A,,Clear,0,2013-02-06 05:15:00
11:35 PM,37.4,35.6,93,30.09,10.0,Calm,Calm,-,N/A,,Clear,0,2013-02-06 05:35:00
11:55 PM,37.4,35.6,93,30.10,7.0,Calm,Calm,-,N/A,,Clear,0,2013-02-06 05:55:00